Purchase, NY

1:44 PM EDT on September 29, 2016 (GMT -0400)
Westchester County

Weather History for KHPN - January, 2014

Change the Weather History Date:

Tuesday, January 7, 2014

  Actual Average Record
Temperature  
Mean Temperature 9 °F -  
Max Temperature 15 °F 36 °F 60 °F (2012)
Min Temperature 3 °F 23 °F 3 °F (2014)
Degree Days  
Heating Degree Days 56    
Moisture  
Dew Point -12 °F    
Average Humidity 41    
Maximum Humidity 48    
Minimum Humidity 34    
Precipitation  
Precipitation 0.00 in - - ()
Sea Level Pressure  
Sea Level Pressure 30.12 in    
Wind  
Wind Speed 19 mph (West)    
Max Wind Speed 28 mph    
Max Gust Speed 39 mph    
Visibility 10 miles    
Events      
Averages and records for this station are not official NWS values.
T = Trace of Precipitation, MM = Missing Value Source: NWS Daily Summary

Daily Weather History Graph

Daily Weather History Graph

Search for Another Location

Airport or City:

Trip Planner

Search our weather history database for the weather conditions in past years. The results will help you decide how hot, cold, wet, or windy it might be!

Date:

Astronomy

Jan. 07, 2014 Rise Set
Actual Time 7:19 AM EST 4:42 PM EST
Civil Twilight 6:49 AM EST 5:13 PM EST
Nautical Twilight 6:14 AM EST 5:47 PM EST
Astronomical Twilight 5:41 AM EST 6:21 PM EST
Moon 11:03 AM EST (1/7) No Moon Set
Length of Visible Light 10h 24m
Length of Day
9h 22m
Waxing Crescent, 45% of the Moon is Illuminated
Jan 7
Waxing Crescent
Jan 7
First Quarter
Jan 15
Full
Jan 24
Last Quarter
Jan 30
New

Hourly Weather History & Observations

Time (EST) Temp. Windchill Dew Point Humidity Pressure Visibility Wind Dir Wind Speed Gust Speed Precip Events Conditions
12:56 AM 15.1 °F -2.9 °F -2.0 °F 47% 29.73 in 10.0 mi West 21.9 mph 33.4 mph N/A   Clear
1:56 AM 12.9 °F -6.9 °F -7.1 °F 41% 29.78 in 10.0 mi West 25.3 mph 38.0 mph N/A   Clear
2:56 AM 10.0 °F -11.5 °F -11.0 °F 38% 29.83 in 10.0 mi WNW 27.6 mph 38.0 mph N/A   Clear
3:56 AM 8.1 °F -12.2 °F -11.9 °F 40% 29.88 in 10.0 mi West 21.9 mph 34.5 mph N/A   Clear
4:56 AM 7.0 °F -14.0 °F -11.9 °F 42% 29.91 in 10.0 mi West 23.0 mph 39.1 mph N/A   Clear
5:56 AM 6.1 °F -13.3 °F -11.9 °F 44% 29.96 in 10.0 mi West 18.4 mph 24.2 mph N/A   Clear
6:56 AM 3.9 °F -15.6 °F -13.0 °F 46% 30.02 in 10.0 mi West 17.3 mph 27.6 mph N/A   Clear
7:56 AM 3.9 °F -15.6 °F -13.0 °F 46% 30.06 in 10.0 mi West 17.3 mph 24.2 mph N/A   Clear
8:56 AM 3.9 °F -16.6 °F -15.0 °F 41% 30.11 in 10.0 mi West 19.6 mph 29.9 mph N/A   Clear
9:56 AM 5.0 °F -15.7 °F -15.0 °F 39% 30.14 in 10.0 mi West 20.7 mph 31.1 mph N/A   Clear
10:56 AM 6.1 °F -12.8 °F -15.0 °F 38% 30.16 in 10.0 mi West 17.3 mph 31.1 mph N/A   Clear
11:56 AM 7.0 °F -11.0 °F -15.0 °F 36% 30.13 in 10.0 mi West 16.1 mph 27.6 mph N/A   Clear
12:56 PM 7.0 °F -12.1 °F -15.0 °F 36% 30.14 in 10.0 mi WNW 18.4 mph 26.5 mph N/A   Partly Cloudy
1:56 PM 8.1 °F -9.6 °F -15.0 °F 34% 30.15 in 10.0 mi WNW 16.1 mph 28.8 mph N/A   Partly Cloudy
2:56 PM 8.1 °F -4.3 °F -15.0 °F 34% 30.19 in 10.0 mi SW 8.1 mph 21.9 mph N/A   Partly Cloudy
3:56 PM 8.1 °F -7.0 °F -14.1 °F 36% 30.21 in 10.0 mi West 11.5 mph 18.4 mph N/A   Clear
4:56 PM 7.0 °F -11.0 °F -13.0 °F 40% 30.23 in 10.0 mi West 16.1 mph 21.9 mph N/A   Clear
5:56 PM 7.0 °F -10.4 °F -13.0 °F 40% 30.26 in 10.0 mi West 15.0 mph 25.3 mph N/A   Clear
6:56 PM 6.1 °F -10.9 °F -11.9 °F 44% 30.27 in 10.0 mi West 13.8 mph 19.6 mph N/A   Clear
7:56 PM 6.1 °F -10.2 °F -11.9 °F 44% 30.30 in 10.0 mi WNW 12.7 mph - N/A   Clear
8:56 PM 6.1 °F -10.2 °F -11.0 °F 45% 30.33 in 10.0 mi West 12.7 mph 17.3 mph N/A   Clear
9:56 PM 6.1 °F -5.6 °F -9.9 °F 48% 30.35 in 10.0 mi Variable 6.9 mph - N/A   Clear
10:56 PM 6.1 °F -8.7 °F -9.9 °F 48% 30.36 in 10.0 mi West 10.4 mph - N/A   Clear
11:56 PM 6.1 °F -8.7 °F -9.9 °F 48% 30.37 in 10.0 mi West 10.4 mph 20.7 mph N/A   Clear